• In Deutschland
  • Länderverzeichnis
  • Für 7 Tage
  • Wassertemperatur
  • Satellitenkarten
  • Wetterkarte
  • Widgets
  • user-avatar
    Anmelden

    Stündliche Wetter Titisee

    Heute, 21 September, Freitag

    Zeit Temperatur Niederschläge Wind Luftdruck Luftfeuchtigkeit
    00:00 +14°C° 0 mm 1 m/S 681 mmHg 77%
    01:00 +14°C° 0 mm 1 m/S 681 mmHg 77%
    02:00 +14°C° 0 mm 1 m/S 680 mmHg 78%
    03:00 +13°C° 0 mm 2 m/S 680 mmHg 79%
    04:00 +13°C° 0 mm 2 m/S 680 mmHg 80%
    05:00 +13°C° 0 mm 2 m/S 680 mmHg 80%
    06:00 +13°C° 0 mm 2 m/S 680 mmHg 80%
    07:00 +14°C° 0 mm 2 m/S 680 mmHg 81%
    08:00 +16°C° 0 mm 3 m/S 680 mmHg 73%
    09:00 +19°C° 0 mm 4 m/S 681 mmHg 65%
    10:00 +21°C° 0 mm 5 m/S 681 mmHg 57%
    11:00 +21°C° 0.1 mm 5 m/S 681 mmHg 56%
    12:00 +21°C° 0.1 mm 6 m/S 681 mmHg 55%
    13:00 +21°C° 0 mm 5 m/S 681 mmHg 59%
    14:00 +19°C° 0.6 mm 5 m/S 680 mmHg 66%
    15:00 +17°C° 0.6 mm 4 m/S 680 mmHg 74%
    16:00 +15°C° 0.6 mm 4 m/S 680 mmHg 81%
    17:00 +13°C° 0.3 mm 4 m/S 681 mmHg 84%
    18:00 +12°C° 0.3 mm 4 m/S 681 mmHg 86%
    19:00 +11°C° 0.3 mm 4 m/S 682 mmHg 89%
    20:00 +10°C° 0.1 mm 4 m/S 682 mmHg 89%
    21:00 +9°C° 0.1 mm 3 m/S 683 mmHg 89%
    22:00 +8°C° 0.1 mm 2 m/S 683 mmHg 89%
    23:00 +8°C° 0 mm 2 m/S 684 mmHg 89%

    Morgen, 22 September, Samstag

    Zeit Temperatur Niederschläge Wind Luftdruck Luftfeuchtigkeit
    00:00 +8°C° 0 mm 1 m/S 684 mmHg 89%
    01:00 +8°C° 0 mm 1 m/S 684 mmHg 90%
    02:00 +7°C° 0 mm 1 m/S 684 mmHg 90%
    03:00 +7°C° 0 mm 1 m/S 684 mmHg 90%
    04:00 +7°C° 0 mm 1 m/S 684 mmHg 91%
    05:00 +7°C° 0 mm 1 m/S 684 mmHg 90%
    06:00 +7°C° 0 mm 1 m/S 685 mmHg 89%
    07:00 +7°C° 0 mm 1 m/S 685 mmHg 89%
    08:00 +8°C° 0 mm 1 m/S 685 mmHg 79%
    09:00 +10°C° 0 mm 1 m/S 686 mmHg 70%
    10:00 +12°C° 0 mm 1 m/S 686 mmHg 61%
    11:00 +13°C° 0 mm 1 m/S 686 mmHg 55%
    12:00 +14°C° 0 mm 2 m/S 686 mmHg 49%
    13:00 +15°C° 0 mm 2 m/S 686 mmHg 43%
    14:00 +16°C° 0 mm 2 m/S 686 mmHg 43%
    15:00 +16°C° 0 mm 2 m/S 685 mmHg 43%
    16:00 +16°C° 0 mm 2 m/S 685 mmHg 43%
    17:00 +14°C° 0 mm 2 m/S 685 mmHg 47%
    18:00 +13°C° 0 mm 1 m/S 685 mmHg 52%
    19:00 +12°C° 0 mm 1 m/S 684 mmHg 56%
    20:00 +11°C° 0 mm 1 m/S 684 mmHg 57%
    21:00 +11°C° 0 mm 1 m/S 684 mmHg 58%
    22:00 +11°C° 0 mm 1 m/S 684 mmHg 59%
    23:00 +10°C° 0.1 mm 2 m/S 684 mmHg 62%

    übermorgen, 23 September, Sonntag

    Zeit Temperatur Niederschläge Wind Luftdruck Luftfeuchtigkeit
    00:00 +10°C° 0.1 mm 2 m/S 684 mmHg 65%
    01:00 +10°C° 0.1 mm 2 m/S 684 mmHg 68%
    02:00 +10°C° 0.1 mm 2 m/S 683 mmHg 68%
    03:00 +10°C° 0.1 mm 3 m/S 683 mmHg 68%
    04:00 +11°C° 0.1 mm 3 m/S 683 mmHg 69%
    05:00 +11°C° 0 mm 4 m/S 683 mmHg 68%
    06:00 +12°C° 0 mm 4 m/S 683 mmHg 67%
    07:00 +12°C° 0 mm 4 m/S 683 mmHg 67%
    08:00 +13°C° 0.1 mm 4 m/S 683 mmHg 71%
    09:00 +13°C° 0.1 mm 4 m/S 683 mmHg 74%
    10:00 +13°C° 0.1 mm 4 m/S 683 mmHg 78%
    11:00 +15°C° 0 mm 4 m/S 683 mmHg 74%
    12:00 +17°C° 0 mm 5 m/S 683 mmHg 70%
    13:00 +20°C° 0 mm 6 m/S 683 mmHg 66%
    14:00 +20°C° 0 mm 6 m/S 682 mmHg 65%
    15:00 +21°C° 0 mm 6 m/S 682 mmHg 64%
    16:00 +21°C° 0 mm 6 m/S 681 mmHg 62%
    17:00 +20°C° 0.2 mm 7 m/S 680 mmHg 67%
    18:00 +18°C° 0.2 mm 7 m/S 680 mmHg 72%
    19:00 +17°C° 0.2 mm 7 m/S 679 mmHg 77%
    20:00 +16°C° 1.7 mm 7 m/S 680 mmHg 80%
    21:00 +15°C° 1.7 mm 8 m/S 680 mmHg 84%
    22:00 +13°C° 1.7 mm 9 m/S 681 mmHg 88%
    23:00 +11°C° 1.3 mm 7 m/S 682 mmHg 88%

    24 September, Montag

    Zeit Temperatur Niederschläge Wind Luftdruck Luftfeuchtigkeit
    00:00 +8°C° 1.3 mm 6 m/S 683 mmHg 89%
    01:00 +6°C° 1.3 mm 5 m/S 684 mmHg 89%
    02:00 +5°C° 0 mm 3 m/S 684 mmHg 90%
    03:00 +6°C° 0 mm 2 m/S 685 mmHg 90%
    04:00 +6°C° 0 mm 1 m/S 686 mmHg 91%
    05:00 +5°C° 0 mm 1 m/S 687 mmHg 91%
    06:00 +5°C° 0 mm 1 m/S 687 mmHg 92%
    07:00 +5°C° 0 mm 1 m/S 687 mmHg 93%
    08:00 +5°C° 0 mm 2 m/S 688 mmHg 85%
    09:00 +6°C° 0 mm 2 m/S 689 mmHg 78%
    10:00 +7°C° 0 mm 3 m/S 689 mmHg 71%
    11:00 +8°C° 0 mm 3 m/S 690 mmHg 64%
    12:00 +9°C° 0 mm 3 m/S 690 mmHg 58%
    13:00 +10°C° 0 mm 3 m/S 690 mmHg 51%
    14:00 +11°C° 0 mm 3 m/S 690 mmHg 50%
    15:00 +11°C° 0 mm 4 m/S 690 mmHg 49%
    16:00 +11°C° 0 mm 4 m/S 690 mmHg 48%
    17:00 +9°C° 0 mm 3 m/S 690 mmHg 53%
    18:00 +7°C° 0 mm 3 m/S 690 mmHg 59%
    19:00 +5°C° 0 mm 2 m/S 690 mmHg 64%
    20:00 +5°C° 0 mm 2 m/S 690 mmHg 65%
    21:00 +4°C° 0 mm 2 m/S 690 mmHg 66%
    22:00 +3°C° 0 mm 2 m/S 691 mmHg 67%
    23:00 +3°C° 0 mm 2 m/S 691 mmHg 69%

    25 September, Dienstag

    Zeit Temperatur Niederschläge Wind Luftdruck Luftfeuchtigkeit
    00:00 +3°C° 0 mm 2 m/S 691 mmHg 70%
    01:00 +3°C° 0 mm 2 m/S 691 mmHg 72%
    02:00 +2°C° 0 mm 2 m/S 691 mmHg 75%
    03:00 +1°C° 0 mm 3 m/S 690 mmHg 78%
    04:00 +1°C° 0 mm 3 m/S 690 mmHg 81%
    05:00 +1°C° 0 mm 3 m/S 690 mmHg 82%
    06:00 +1°C° 0 mm 3 m/S 690 mmHg 84%
    07:00 +1°C° 0 mm 3 m/S 690 mmHg 85%
    08:00 +3°C° 0 mm 3 m/S 690 mmHg 75%
    09:00 +5°C° 0 mm 4 m/S 691 mmHg 65%
    10:00 +7°C° 0 mm 4 m/S 691 mmHg 55%
    11:00 +8°C° 0 mm 4 m/S 691 mmHg 51%
    12:00 +10°C° 0 mm 4 m/S 691 mmHg 47%
    13:00 +12°C° 0 mm 4 m/S 691 mmHg 43%
    14:00 +12°C° 0 mm 4 m/S 691 mmHg 44%
    15:00 +12°C° 0 mm 4 m/S 690 mmHg 45%
    16:00 +12°C° 0 mm 3 m/S 690 mmHg 46%
    17:00 +9°C° 0 mm 3 m/S 690 mmHg 54%
    18:00 +7°C° 0 mm 2 m/S 690 mmHg 62%
    19:00 +5°C° 0 mm 2 m/S 689 mmHg 70%
    20:00 +4°C° 0 mm 2 m/S 689 mmHg 72%
    21:00 +3°C° 0 mm 2 m/S 689 mmHg 74%
    22:00 +4°C° 0 mm 1 m/S 689 mmHg 77%
    23:00 +3°C° 0 mm 1 m/S 689 mmHg 77%

    26 September, Mittwoch

    Zeit Temperatur Niederschläge Wind Luftdruck Luftfeuchtigkeit
    00:00 +3°C° 0 mm 1 m/S 689 mmHg 77%
    01:00 +3°C° 0 mm 1 m/S 689 mmHg 77%
    02:00 +2°C° 0 mm 1 m/S 689 mmHg 77%
    03:00 +2°C° 0 mm 1 m/S 689 mmHg 77%
    04:00 +2°C° 0 mm 1 m/S 688 mmHg 78%
    05:00 +2°C° 0 mm 1 m/S 689 mmHg 77%
    06:00 +2°C° 0 mm 1 m/S 689 mmHg 76%
    07:00 +2°C° 0 mm 1 m/S 689 mmHg 75%
    08:00 +5°C° 0 mm 1 m/S 689 mmHg 67%
    09:00 +8°C° 0 mm 1 m/S 690 mmHg 58%
    10:00 +11°C° 0 mm 1 m/S 690 mmHg 50%
    11:00 +12°C° 0 mm 2 m/S 690 mmHg 46%
    12:00 +14°C° 0 mm 2 m/S 690 mmHg 43%
    13:00 +16°C° 0 mm 2 m/S 691 mmHg 39%
    14:00 +16°C° 0 mm 2 m/S 690 mmHg 41%
    15:00 +16°C° 0 mm 2 m/S 690 mmHg 42%
    16:00 +16°C° 0 mm 2 m/S 690 mmHg 44%
    17:00 +14°C° 0 mm 1 m/S 689 mmHg 53%
    18:00 +11°C° 0 mm 1 m/S 689 mmHg 62%
    19:00 +9°C° 0 mm 1 m/S 688 mmHg 71%
    20:00 +8°C° 0 mm 1 m/S 688 mmHg 73%
    21:00 +7°C° 0 mm 1 m/S 688 mmHg 75%
    22:00 +7°C° 0 mm 1 m/S 688 mmHg 77%
    23:00 +6°C° 0 mm 1 m/S 688 mmHg 76%
    Mehr zeigen